Regional Weather Roundup
Issued by NWS

Home | Current Version | Previous Version | Text Only | Print | Product List | Glossary Off
Versions: 1 2 3 4 5 6 7 8 9 10 11 12 13 14 15 16 17 18 19 20 21 22 23 24 25 26 27 28 29 30 31 32 33 34 35 36 37 38 39 40 41 42 43 44 45 46 47 48 49 50

000
ASUS43 KOAX 232202
RWRNE

WEATHER ROUNDUP FOR NEBRASKA
NATIONAL WEATHER SERVICE OMAHA NE
500 PM CDT WED APR 23 2014

NOTES: SATELLITE DATA IS BEING USED TO AUGMENT CLOUD COVER ABOVE
       12000 FEET.
       "FAIR" INDICATES FEW OR NO CLOUDS BELOW 12,000 FEET WITH NO
       SIGNIFICANT WEATHER AND/OR OBSTRUCTIONS TO VISIBILITY.

  * THESE STATIONS DO NOT REPORT WEATHER SUCH AS RAIN...SNOW OR FOG.

NEZ001>004-019>022-054>056-232300-
NEBRASKA PANHANDLE

CITY           SKY/WX    TMP DP  RH WIND       PRES   REMARKS
SCOTTSBLUFF    CLOUDY    63  18  17 W23G36    29.66S
ALLIANCE       PTSUNNY   64  20  18 NW25G32   29.64R
CHADRON        MOSUNNY   66  30  26 NW18G26   29.64R
KIMBALL        CLOUDY    57  19  23 N25G35    29.68R
SIDNEY         SUNNY     65  25  22 N26G37    29.65S
$$

NEZ057>060-069>072-079>082-232300-
SOUTHWEST NEBRASKA

CITY           SKY/WX    TMP DP  RH WIND       PRES   REMARKS
NORTH PLATTE   SUNNY     77  39  25 N13       29.55S
IMPERIAL       SUNNY     78  29  16 N21G35    29.57F
LEXINGTON      PTSUNNY   81  45  28 NW9       29.52S
MCCOOK         PTSUNNY   80  42  25 N17       29.51F
OGALLALA       SUNNY     74  21  14 NW20G29   29.59S
$$

NEZ005>010-023>029-035>040-094-232300-
NORTH CENTRAL NEBRASKA

CITY           SKY/WX    TMP DP  RH WIND       PRES   REMARKS
VALENTINE      MOSUNNY   75  28  17 W22G29    29.55R
AINSWORTH      SUNNY     77  32  19 NW15G26   29.55R
BROKEN BOW     PTSUNNY   79  40  24 N14       29.53F
O`NEILL        CLOUDY    79  42  26 W12       29.50S
ORD            PTSUNNY   81  48  31 SW15      29.48F
THEDFORD       MOSUNNY   76  22  13 NW23G31   29.59R
$$

NEZ041-046>049-061>064-073>077-083>087-232300-
SOUTH CENTRAL NEBRASKA

CITY           SKY/WX    TMP DP  RH WIND       PRES   REMARKS
GRAND ISLAND   LGT RAIN  72  54  53 SE25G35   29.52F
AURORA         PTSUNNY   76  49  38 S21G30    29.56R
HASTINGS       TSTM      64  55  72 NW12G31   29.55R
HEBRON         PTSUNNY   80  47  31 S24G31    29.56F
HOLDREGE       CLOUDY    82  45  26 W14       29.48F
KEARNEY *      CLOUDY    82  46  28 W17G29    29.49S
YORK           MOSUNNY   75  48  38 S29G36    29.56F
$$

NEZ011>018-030>034-042>045-232300-
NORTHEAST NEBRASKA

CITY           SKY/WX    TMP DP  RH WIND       PRES   REMARKS
NORFOLK        SUNNY     72  44  36 SE26G37   29.58F
ALBION         PTSUNNY   75  46  35 SE22G29   29.52F
BLAIR          CLOUDY    56  44  63 SE22      29.66F
COLUMBUS *     MOSUNNY   68  45  42 SE21G30   29.60F
FREMONT        CLOUDY    61  45  54 SE17G30   29.65F
TEKAMAH        PTSUNNY   61  44  53 SE28G36   29.69S
$$

NEZ050>053-065>068-078-088>093-232300-
SOUTHEAST NEBRASKA

CITY           SKY/WX    TMP DP  RH WIND       PRES   REMARKS
LINCOLN        PTSUNNY   68  46  45 SE18      29.64F
OMAHA EPPLEY   LGT RAIN  54  46  74 SE23      29.68F
BEATRICE       PTSUNNY   73  45  37 SE20G30   29.60F
FALLS CITY     LGT RAIN  67  44  43 S30G37    29.67F
NEBRASKA CITY  CLOUDY    62  45  53 SE24G31   29.67F
PLATTSMOUTH    LGT RAIN  57  46  67 E14       29.71S
$$

NEZ044-045-051>053-067-232300-
OMAHA AREA

CITY           SKY/WX    TMP DP  RH WIND       PRES   REMARKS
OMAHA EPPLEY   LGT RAIN  54  46  74 SE23      29.68F
BLAIR          CLOUDY    56  44  63 SE22      29.66F
FREMONT        CLOUDY    61  45  54 SE17G30   29.65F
MILLARD        LGT RAIN  54  46  76 SE10G18   29.68F
OFFUTT AFB     TSTM      54  49  83 E18       29.70F
PLATTSMOUTH    LGT RAIN  57  46  67 E14       29.71S
WAHOO          FAIR      61  43  51 SE24G33   29.65F
$$



USA.gov is the U.S. government's official web portal to all federal, state and local government web resources and services.